Time,TemperatureF,DewpointF,PressureIn,WindDirection,WindDirectionDegrees,WindSpeedMPH,WindSpeedGustMPH,Humidity,HourlyPrecipIn,Conditions,Clouds,dailyrainin,SoftwareType,DateUTC
2013-07-07 00:02:00,70.0,-99.9,29.75,SSW,202,3.0,7.0,-999,-99.99,,,-99.99,,2013-07-07 07:02:00,
2013-07-07 00:11:00,70.0,-99.9,29.76,SW,222,2.0,6.0,-999,-99.99,,,-99.99,,2013-07-07 07:11:00,
2013-07-07 00:22:00,70.0,-99.9,29.76,SW,222,2.0,6.0,-999,-99.99,,,-99.99,,2013-07-07 07:22:00,
2013-07-07 00:34:00,70.0,-99.9,29.76,SW,222,2.0,6.0,-999,-99.99,,,-99.99,,2013-07-07 07:34:00,
2013-07-07 00:44:00,70.0,-99.9,29.76,SW,222,2.0,6.0,-999,-99.99,,,-99.99,,2013-07-07 07:44:00,
2013-07-07 01:12:00,70.0,-99.9,29.78,South,176,3.0,6.0,-999,-99.99,,,-99.99,,2013-07-07 08:12:00,
2013-07-07 01:22:00,70.0,-99.9,29.75,South,188,2.0,4.0,-999,-99.99,,,-99.99,,2013-07-07 08:22:00,
2013-07-07 01:34:00,70.0,-99.9,29.75,SSW,194,2.0,4.0,-999,-99.99,,,-99.99,,2013-07-07 08:34:00,
2013-07-07 01:44:00,70.0,-99.9,29.75,SSE,168,3.0,4.0,-999,-99.99,,,-99.99,,2013-07-07 08:44:00,
2013-07-07 01:53:00,70.0,-99.9,29.75,SW,217,2.0,4.0,-999,-99.99,,,-99.99,,2013-07-07 08:53:00,
2013-07-07 02:02:00,70.0,-99.9,29.75,SW,217,2.0,4.0,-999,-99.99,,,-99.99,,2013-07-07 09:02:00,
2013-07-07 02:12:00,70.0,-99.9,29.75,SW,217,2.0,4.0,-999,-99.99,,,-99.99,,2013-07-07 09:12:00,
2013-07-07 02:22:00,70.0,-99.9,29.75,SW,214,2.0,3.0,-999,-99.99,,,-99.99,,2013-07-07 09:22:00,
2013-07-07 02:34:00,70.0,-99.9,29.76,SE,125,1.0,3.0,-999,-99.99,,,-99.99,,2013-07-07 09:34:00,
2013-07-07 02:40:00,70.0,-99.9,29.75,SSW,197,1.0,4.0,-999,-99.99,,,-99.99,,2013-07-07 09:40:00,
2013-07-07 02:43:00,70.0,-99.9,29.76,SE,125,1.0,3.0,-999,-99.99,,,-99.99,,2013-07-07 09:43:00,
2013-07-07 03:03:00,70.0,-99.9,29.75,SSW,197,1.0,4.0,-999,-99.99,,,-99.99,,2013-07-07 10:03:00,
2013-07-07 03:12:00,70.0,-99.9,29.75,SSW,197,1.0,4.0,-999,-99.99,,,-99.99,,2013-07-07 10:12:00,
2013-07-07 03:23:00,70.0,-99.9,29.75,SSW,197,1.0,4.0,-999,-99.99,,,-99.99,,2013-07-07 10:23:00,
2013-07-07 03:32:00,70.0,-99.9,29.75,SSW,197,1.0,4.0,-999,-99.99,,,-99.99,,2013-07-07 10:32:00,
2013-07-07 04:02:00,70.0,-99.9,29.74,SW,217,1.0,3.0,-999,-99.99,,,-99.99,,2013-07-07 11:02:00,
2013-07-07 04:12:00,70.0,-99.9,29.74,SW,217,1.0,3.0,-999,-99.99,,,-99.99,,2013-07-07 11:12:00,
2013-07-07 04:20:00,69.0,-99.9,29.72,NNE,21,1.0,3.0,-999,-99.99,,,-99.99,,2013-07-07 11:20:00,
2013-07-07 04:34:00,69.0,-99.9,29.72,NNE,21,1.0,3.0,-999,-99.99,,,-99.99,,2013-07-07 11:34:00,
2013-07-07 04:43:00,69.0,-99.9,29.72,NNE,21,1.0,3.0,-999,-99.99,,,-99.99,,2013-07-07 11:43:00,
2013-07-07 04:53:00,69.0,-99.9,29.72,NNE,21,1.0,3.0,-999,-99.99,,,-99.99,,2013-07-07 11:53:00,
2013-07-07 05:02:00,69.0,-99.9,29.72,NNE,21,1.0,3.0,-999,-99.99,,,-99.99,,2013-07-07 12:02:00,
2013-07-07 05:12:00,69.0,-99.9,29.72,NNE,21,1.0,3.0,-999,-99.99,,,-99.99,,2013-07-07 12:12:00,
2013-07-07 05:34:00,69.0,-99.9,29.72,SSW,213,1.0,3.0,-999,-99.99,,,-99.99,,2013-07-07 12:34:00,
2013-07-07 05:43:00,69.0,-99.9,29.72,SSW,213,1.0,3.0,-999,-99.99,,,-99.99,,2013-07-07 12:43:00,
2013-07-07 06:03:00,69.0,-99.9,29.73,WSW,258,3.0,4.0,-999,-99.99,,,-99.99,,2013-07-07 13:03:00,
2013-07-07 06:12:00,69.0,-99.9,29.73,WSW,258,3.0,4.0,-999,-99.99,,,-99.99,,2013-07-07 13:12:00,
2013-07-07 06:20:00,69.0,-99.9,29.76,NNE,30,2.0,3.0,-999,-99.99,,,-99.99,,2013-07-07 13:20:00,
2013-07-07 06:22:00,69.0,-99.9,29.73,WSW,258,3.0,4.0,-999,-99.99,,,-99.99,,2013-07-07 13:22:00,
2013-07-07 06:34:00,69.0,-99.9,29.76,NNE,30,2.0,3.0,-999,-99.99,,,-99.99,,2013-07-07 13:34:00,
2013-07-07 06:43:00,69.0,-99.9,29.76,NNE,30,2.0,3.0,-999,-99.99,,,-99.99,,2013-07-07 13:43:00,
2013-07-07 06:53:00,69.0,-99.9,29.76,NNE,30,2.0,3.0,-999,-99.99,,,-99.99,,2013-07-07 13:53:00,
2013-07-07 07:02:00,69.0,-99.9,29.76,NNE,30,2.0,3.0,-999,-99.99,,,-99.99,,2013-07-07 14:02:00,
2013-07-07 07:12:00,69.0,-99.9,29.76,NNE,30,2.0,3.0,-999,-99.99,,,-99.99,,2013-07-07 14:12:00,
2013-07-07 08:12:00,70.0,-99.9,29.77,SSE,162,1.0,3.0,-999,-99.99,,,-99.99,,2013-07-07 15:12:00,
2013-07-07 08:34:00,70.0,-99.9,29.76,NW,317,2.0,5.0,-999,-99.99,,,-99.99,,2013-07-07 15:34:00,
2013-07-07 08:43:00,70.0,-99.9,29.77,ENE,67,1.0,3.0,-999,-99.99,,,-99.99,,2013-07-07 15:43:00,
2013-07-07 08:52:00,70.0,-99.9,29.77,ENE,67,1.0,3.0,-999,-99.99,,,-99.99,,2013-07-07 15:52:00,
2013-07-07 09:02:00,70.0,-99.9,29.77,ENE,67,1.0,3.0,-999,-99.99,,,-99.99,,2013-07-07 16:02:00,
2013-07-07 09:11:00,70.0,-99.9,29.77,ENE,67,1.0,3.0,-999,-99.99,,,-99.99,,2013-07-07 16:11:00,
2013-07-07 09:43:00,72.0,-99.9,29.78,SSE,152,3.0,5.0,-999,-99.99,,,-99.99,,2013-07-07 16:43:00,
2013-07-07 10:02:00,73.0,-99.9,29.78,WSW,258,5.0,9.0,-999,-99.99,,,-99.99,,2013-07-07 17:02:00,
2013-07-07 10:12:00,73.0,-99.9,29.78,WSW,258,5.0,9.0,-999,-99.99,,,-99.99,,2013-07-07 17:12:00,
2013-07-07 10:22:00,73.0,-99.9,29.78,WSW,258,5.0,9.0,-999,-99.99,,,-99.99,,2013-07-07 17:22:00,
2013-07-07 10:34:00,75.0,-99.9,29.78,SSE,166,3.0,6.0,-999,-99.99,,,-99.99,,2013-07-07 17:34:00,
2013-07-07 10:43:00,75.0,-99.9,29.78,SW,230,4.0,8.0,-999,-99.99,,,-99.99,,2013-07-07 17:43:00,
2013-07-07 11:02:00,76.0,-99.9,29.79,SSW,193,4.0,10.0,-999,-99.99,,,-99.99,,2013-07-07 18:02:00,
2013-07-07 11:12:00,76.0,-99.9,29.79,South,183,4.0,9.0,-999,-99.99,,,-99.99,,2013-07-07 18:12:00,
2013-07-07 11:22:00,76.0,-99.9,29.79,South,183,4.0,9.0,-999,-99.99,,,-99.99,,2013-07-07 18:22:00,
2013-07-07 11:33:00,77.0,-99.9,29.78,SW,225,6.0,9.0,-999,-99.99,,,-99.99,,2013-07-07 18:33:00,
2013-07-07 11:43:00,77.0,-99.9,29.78,SSW,212,5.0,11.0,-999,-99.99,,,-99.99,,2013-07-07 18:43:00,
2013-07-07 12:01:00,78.0,-99.9,29.79,SSW,211,4.0,10.0,-999,-99.99,,,-99.99,,2013-07-07 19:01:00,
2013-07-07 12:11:00,78.0,-99.9,29.78,WSW,249,4.0,10.0,-999,-99.99,,,-99.99,,2013-07-07 19:11:00,
2013-07-07 12:34:00,79.0,-99.9,29.79,SSW,204,4.0,10.0,-999,-99.99,,,-99.99,,2013-07-07 19:34:00,
2013-07-07 12:43:00,80.0,-99.9,29.79,SW,219,5.0,11.0,-999,-99.99,,,-99.99,,2013-07-07 19:43:00,
2013-07-07 13:02:00,80.0,-99.9,29.79,SW,224,4.0,12.0,-999,-99.99,,,-99.99,,2013-07-07 20:02:00,
2013-07-07 13:11:00,80.0,-99.9,29.78,WSW,244,6.0,12.0,-999,-99.99,,,-99.99,,2013-07-07 20:11:00,
2013-07-07 13:22:00,80.0,-99.9,29.78,WSW,244,6.0,12.0,-999,-99.99,,,-99.99,,2013-07-07 20:22:00,
2013-07-07 13:34:00,80.0,-99.9,29.78,WSW,244,6.0,12.0,-999,-99.99,,,-99.99,,2013-07-07 20:34:00,
2013-07-07 13:42:00,81.0,-99.9,29.78,SW,232,7.0,13.0,-999,-99.99,,,-99.99,,2013-07-07 20:42:00,
2013-07-07 13:53:00,81.0,-99.9,29.78,SW,232,7.0,13.0,-999,-99.99,,,-99.99,,2013-07-07 20:53:00,
2013-07-07 14:02:00,81.0,-99.9,29.75,SW,215,7.0,12.0,-999,-99.99,,,-99.99,,2013-07-07 21:02:00,
2013-07-07 14:12:00,81.0,-99.9,29.76,SW,224,5.0,12.0,-999,-99.99,,,-99.99,,2013-07-07 21:12:00,
2013-07-07 14:34:00,81.0,-99.9,29.76,SSW,203,5.0,10.0,-999,-99.99,,,-99.99,,2013-07-07 21:34:00,
2013-07-07 14:44:00,82.0,-99.9,29.74,SSW,203,4.0,10.0,-999,-99.99,,,-99.99,,2013-07-07 21:44:00,
2013-07-07 14:53:00,82.0,-99.9,29.74,SSW,203,4.0,10.0,-999,-99.99,,,-99.99,,2013-07-07 21:53:00,
2013-07-07 15:02:00,82.0,-99.9,29.75,SSW,196,6.0,10.0,-999,-99.99,,,-99.99,,2013-07-07 22:02:00,
2013-07-07 15:11:00,82.0,-99.9,29.75,SSW,196,6.0,10.0,-999,-99.99,,,-99.99,,2013-07-07 22:11:00,
2013-07-07 15:22:00,82.0,-99.9,29.75,SSW,196,6.0,10.0,-999,-99.99,,,-99.99,,2013-07-07 22:22:00,
2013-07-07 15:34:00,83.0,-99.9,29.74,SSE,164,7.0,13.0,-999,-99.99,,,-99.99,,2013-07-07 22:34:00,
2013-07-07 15:44:00,83.0,-99.9,29.74,SW,231,5.0,11.0,-999,-99.99,,,-99.99,,2013-07-07 22:44:00,
2013-07-07 15:54:00,83.0,-99.9,29.74,SW,231,5.0,11.0,-999,-99.99,,,-99.99,,2013-07-07 22:54:00,
2013-07-07 16:02:00,84.0,-99.9,29.74,WNW,295,5.0,11.0,-999,-99.99,,,-99.99,,2013-07-07 23:02:00,
2013-07-07 16:12:00,84.0,-99.9,29.74,WNW,295,5.0,11.0,-999,-99.99,,,-99.99,,2013-07-07 23:12:00,
2013-07-07 16:22:00,84.0,-99.9,29.74,WNW,295,5.0,11.0,-999,-99.99,,,-99.99,,2013-07-07 23:22:00,
2013-07-07 16:33:00,84.0,-99.9,29.73,WNW,297,5.0,13.0,-999,-99.99,,,-99.99,,2013-07-07 23:33:00,
2013-07-07 16:43:00,84.0,-99.9,29.73,WNW,297,5.0,13.0,-999,-99.99,,,-99.99,,2013-07-07 23:43:00,
2013-07-07 17:02:00,84.0,-99.9,29.72,West,271,5.0,12.0,-999,-99.99,,,-99.99,,2013-07-08 00:02:00,
2013-07-07 17:12:00,84.0,-99.9,29.72,West,271,5.0,12.0,-999,-99.99,,,-99.99,,2013-07-08 00:12:00,
2013-07-07 17:22:00,84.0,-99.9,29.73,WNW,288,6.0,11.0,-999,-99.99,,,-99.99,,2013-07-08 00:22:00,
2013-07-07 17:33:00,84.0,-99.9,29.73,West,274,7.0,12.0,-999,-99.99,,,-99.99,,2013-07-08 00:33:00,
2013-07-07 17:43:00,84.0,-99.9,29.73,West,279,6.0,12.0,-999,-99.99,,,-99.99,,2013-07-08 00:43:00,
2013-07-07 17:53:00,84.0,-99.9,29.73,West,279,6.0,12.0,-999,-99.99,,,-99.99,,2013-07-08 00:53:00,
2013-07-07 18:01:00,83.0,-99.9,29.71,West,264,5.0,9.0,-999,-99.99,,,-99.99,,2013-07-08 01:01:00,
2013-07-07 18:11:00,83.0,-99.9,29.71,West,264,5.0,9.0,-999,-99.99,,,-99.99,,2013-07-08 01:11:00,
2013-07-07 18:22:00,83.0,-99.9,29.71,West,264,5.0,9.0,-999,-99.99,,,-99.99,,2013-07-08 01:22:00,
2013-07-07 18:32:00,82.0,-99.9,29.70,West,276,5.0,11.0,-999,-99.99,,,-99.99,,2013-07-08 01:32:00,
2013-07-07 18:43:00,81.0,-99.9,29.71,West,268,5.0,10.0,-999,-99.99,,,-99.99,,2013-07-08 01:43:00,
2013-07-07 18:53:00,81.0,-99.9,29.71,West,268,5.0,10.0,-999,-99.99,,,-99.99,,2013-07-08 01:53:00,
2013-07-07 19:03:00,81.0,-99.9,29.71,West,272,6.0,9.0,-999,-99.99,,,-99.99,,2013-07-08 02:03:00,
2013-07-07 19:11:00,80.0,-99.9,29.71,West,270,5.0,10.0,-999,-99.99,,,-99.99,,2013-07-08 02:11:00,
2013-07-07 19:22:00,80.0,-99.9,29.71,West,270,5.0,10.0,-999,-99.99,,,-99.99,,2013-07-08 02:22:00,
2013-07-07 19:33:00,79.0,-99.9,29.71,WNW,291,5.0,11.0,-999,-99.99,,,-99.99,,2013-07-08 02:33:00,
2013-07-07 19:43:00,79.0,-99.9,29.71,WNW,291,5.0,11.0,-999,-99.99,,,-99.99,,2013-07-08 02:43:00,
2013-07-07 20:02:00,78.0,-99.9,29.71,WNW,287,5.0,10.0,-999,-99.99,,,-99.99,,2013-07-08 03:02:00,
2013-07-07 20:12:00,77.0,-99.9,29.72,West,272,4.0,8.0,-999,-99.99,,,-99.99,,2013-07-08 03:12:00,
2013-07-07 20:34:00,77.0,-99.9,29.74,WNW,298,3.0,6.0,-999,-99.99,,,-99.99,,2013-07-08 03:34:00,
2013-07-07 20:43:00,77.0,-99.9,29.74,WNW,298,3.0,6.0,-999,-99.99,,,-99.99,,2013-07-08 03:43:00,
2013-07-07 21:02:00,76.0,-99.9,29.74,West,267,4.0,7.0,-999,-99.99,,,-99.99,,2013-07-08 04:02:00,
2013-07-07 21:12:00,76.0,-99.9,29.74,West,267,4.0,7.0,-999,-99.99,,,-99.99,,2013-07-08 04:12:00,
2013-07-07 21:22:00,76.0,-99.9,29.74,West,267,4.0,7.0,-999,-99.99,,,-99.99,,2013-07-08 04:22:00,
2013-07-07 21:33:00,76.0,-99.9,29.74,West,267,4.0,7.0,-999,-99.99,,,-99.99,,2013-07-08 04:33:00,
2013-07-07 21:42:00,75.0,-99.9,29.76,West,261,4.0,6.0,-999,-99.99,,,-99.99,,2013-07-08 04:42:00,
2013-07-07 21:53:00,75.0,-99.9,29.77,West,265,3.0,6.0,-999,-99.99,,,-99.99,,2013-07-08 04:53:00,
2013-07-07 22:01:00,75.0,-99.9,29.77,West,265,3.0,6.0,-999,-99.99,,,-99.99,,2013-07-08 05:01:00,
2013-07-07 22:12:00,75.0,-99.9,29.77,West,265,3.0,6.0,-999,-99.99,,,-99.99,,2013-07-08 05:12:00,
2013-07-07 22:20:00,73.0,-99.9,29.79,WNW,298,2.0,6.0,-999,-99.99,,,-99.99,,2013-07-08 05:20:00,
2013-07-07 22:34:00,74.0,-99.9,29.79,West,269,3.0,5.0,-999,-99.99,,,-99.99,,2013-07-08 05:34:00,
2013-07-07 22:43:00,73.0,-99.9,29.79,WNW,298,2.0,6.0,-999,-99.99,,,-99.99,,2013-07-08 05:43:00,
2013-07-07 22:53:00,73.0,-99.9,29.79,WNW,298,2.0,6.0,-999,-99.99,,,-99.99,,2013-07-08 05:53:00,
2013-07-07 23:01:00,73.0,-99.9,29.79,WNW,298,2.0,6.0,-999,-99.99,,,-99.99,,2013-07-08 06:01:00,
2013-07-07 23:12:00,73.0,-99.9,29.79,WNW,298,2.0,6.0,-999,-99.99,,,-99.99,,2013-07-08 06:12:00,
2013-07-07 23:43:00,72.0,-99.9,29.80,WNW,296,2.0,4.0,-999,-99.99,,,-99.99,,2013-07-08 06:43:00,
2013-07-07 23:53:00,72.0,-99.9,29.80,WNW,296,2.0,4.0,-999,-99.99,,,-99.99,,2013-07-08 06:53:00,